{"data":{"norad_id":60375,"epoch":"2026-05-24T20:49:51.909024Z","epoch_age_seconds":86149,"freshness":"FRESH","line1":"1 60375U 24138W   26144.86796191 -.00001406  00000+0 -35399-4 0  9998","line2":"2 60375  53.1610 315.5609 0001033  93.7094 266.4025 15.30174146102197","mean_motion":15.30174146,"eccentricity":0.0001033,"inclination_deg":53.161,"raan_deg":315.5609,"arg_perigee_deg":93.7094,"mean_anomaly_deg":266.4025,"bstar":-3.5399e-5,"rev_number":10219,"period_min":94.106935721289,"perigee_km":474.58430664686,"apogee_km":476.00022513319,"semimajor_km":6853.42926589,"source":"CELESTRAK","updated_at":"2026-05-25T13:38:19.242264Z"}}